IU2QRC-3 Weather Reports


time (UTC)temp
C
wind
direction
speed
KPH
gust
KPH
rain 1hr
cm
rain 24hr
cm
rain mn
cm
humidity
%
barometer
mb
20260506060722 13 0.0 0.0 0.00 0.00 0.00 59 1007.6
20260506050721 12 0.0 0.0 0.00 0.00 0.00 62 1008.1
20260506044720 13 0.0 0.0 0.00 0.00 0.00 60 1007.7
20260506042720 13 0.0 0.0 0.00 0.00 0.00 60 1008.2
20260506040720 13 0.0 0.0 0.00 0.00 0.00 58 1007.9
20260506034720 13 0.0 0.0 0.00 0.00 0.00 61 1008.0
20260506032719 13 0.0 0.0 0.00 0.00 0.00 59 1007.8
20260506030719 13 0.0 0.0 0.00 0.00 0.00 59 1008.1
20260506024719 12 0.0 0.0 0.00 0.00 0.00 64 1008.8
20260506022718 13 0.0 0.0 0.00 0.00 0.00 59 1008.7
20260506020718 13 0.0 0.0 0.00 0.00 0.00 60 1008.8
20260506014717 13 0.0 0.0 0.00 0.00 0.00 58 1009.0
20260506012717 14 0.0 0.0 0.00 0.00 0.00 57 1009.0
20260506010717 15 0.0 0.0 0.00 0.00 0.00 57 1009.1
20260506004716 14 0.0 0.0 0.00 0.00 0.00 58 1009.2
20260506002716 14 0.0 0.0 0.00 0.00 0.00 58 1009.5
20260506000716 15 0.0 0.0 0.00 0.00 0.00 57 1009.6
20260505234715 14 0.0 0.0 0.00 0.00 0.00 57 1009.7
20260505232715 14 0.0 0.0 0.00 0.00 0.00 58 1009.8
20260505230715 14 0.0 0.0 0.00 0.00 0.00 58 1009.8
20260505224714 14 0.0 0.0 0.00 0.00 0.00 58 1010.1
20260505222714 14 0.0 0.0 0.00 0.00 0.00 56 1010.2
20260505220714 15 0.0 0.0 0.00 0.00 0.00 55 1010.2
20260505214713 20 0.0 0.0 0.00 0.00 0.00 42 1009.7
20260505214232 22 0.0 0.0 0.00 0.00 0.00 35 1009.5
20260505213845 22 0.0 0.0 0.00 0.00 0.00 36 1009.6
20260505212321 20 0.0 0.0 0.00 0.00 0.00 39 1010.0
20260505211519 20 0.0 0.0 0.00 0.00 0.00 39 1010.0
20260505205519 21 0.0 0.0 0.00 0.00 0.00 39 1010.1
20260505203518 21 0.0 0.0 0.00 0.00 0.00 39 1010.1
20260505201518 21 0.0 0.0 0.00 0.00 0.00 38 1010.1
20260505195518 21 0.0 0.0 0.00 0.00 0.00 38 1010.0
20260505193517 21 0.0 0.0 0.00 0.00 0.00 37 1010.0
20260505191517 20 0.0 0.0 0.00 0.00 0.00 41 1010.1
20260505185959 22 0.0 0.0 0.00 0.00 0.00 35 1009.6
20260505183959 22 0.0 0.0 0.00 0.00 0.00 35 1009.7
20260505181959 22 0.0 0.0 0.00 0.00 0.00 36 1009.6
20260505175959 22 0.0 0.0 0.00 0.00 0.00 36 1009.6
20260505173958 22 0.0 0.0 0.00 0.00 0.00 36 1009.5
20260505171958 22 0.0 0.0 0.00 0.00 0.00 36 1009.4
20260505165958 22 0.0 0.0 0.00 0.00 0.00 37 1009.5
20260505163957 16 0.0 0.0 0.00 0.00 0.00 51 1010.3
20260505162314 13 0.0 0.0 0.00 0.00 0.00 65 1010.8
20260505160314 18 0.0 0.0 0.00 0.00 0.00 45 1010.1
20260505153326 28 0.0 0.0 0.00 0.00 0.00 31 1009.0
20260505152858 20 0.0 0.0 0.00 0.00 0.00 43 1010.1
20260505152139 20 0.0 0.0 0.00 0.00 0.00 45 1010.3
20260505150943 18 0.0 0.0 0.00 0.00 0.00 49 1010.5
20260505120156 15 0.0 0.0 0.00 0.00 0.00 56 1011.4
20260505114156 14 0.0 0.0 0.00 0.00 0.00 58 1011.4
20260505112156 15 0.0 0.0 0.00 0.00 0.00 55 1011.2
20260505110155 15 0.0 0.0 0.00 0.00 0.00 55 1011.2
20260505102154 15 0.0 0.0 0.00 0.00 0.00 56 1011.3
20260505100154 14 0.0 0.0 0.00 0.00 0.00 58 1011.2
20260505094153 15 0.0 0.0 0.00 0.00 0.00 55 1011.0
20260505092153 19 0.0 0.0 0.00 0.00 0.00 42 1010.4
20260505081714 17 0.0 0.0 0.00 0.00 0.00 47 1010.8